Welcome to the New NWS' Forecast!
Most changes are behind the scenes, but click here for differences you might notice.

Regional Weather Roundup (RWR)

Issued by Gray - Portland, ME (GYX)

                            
836 
ASUS41 KGYX 140710
RWRGYX
WEATHER ROUNDUP FOR MAINE AND NEW HAMPSHIRE
NATIONAL WEATHER SERVICE GRAY ME
300 AM EDT TUE AUG 14 2018

MEZ002-005-006-010-012-015-018-020-021-024-026-027-029-140800-
MAINE
  
CITY           SKY/WX    TMP DP  RH WIND       PRES   REMARKS
PORTLAND       CLOUDY    67  67 100 E5        29.97S                  
SANFORD        LGT RAIN  66  66 100 NE6       29.96F VSB 1            
BAR HARBOR     FOG       64  64 100 CALM      30.00F VSB 3/4          
WISCASSET      CLOUDY    67  67 100 CALM      29.99S                  
ROCKLAND       FOG       65  65 100 NE6       29.98F VSB 1/2          
FRYEBURG       LGT RAIN  69  69 100 CALM      29.98S FOG              
LEWISTONAUBURN CLOUDY    68  67  96 CALM      29.98F                  
AUGUSTA        LGT RAIN  68  67  96 E3        29.99F                  
WATERVILLE     CLOUDY    68  67  96 CALM      29.96F                  
BANGOR         CLOUDY    69  68  96 SE3       29.99F FOG              
GREENVILLE       N/A     67  66  97 CALM      30.00F                  
MILLINOCKET    CLOUDY    70  66  87 CALM      30.01F                  
HOULTON        CLOUDY    68  66  93 CALM      29.99S                  
PRESQUE ISLE   FAIR      66  65  96 S3        30.00S                  
FRENCHVILLE    FAIR      69  65  86 S7        29.98S                  
CARIBOU        FAIR      67  64  90 S5        29.98S                  
$$

NHZ002-005-008-009-011-012-014-140800-
NEW HAMPSHIRE
  
CITY           SKY/WX    TMP DP  RH WIND       PRES   REMARKS
PORTSMOUTH     LGT RAIN  67  67 100 NE6       29.92F FOG              
ROCHESTER      LGT RAIN  66  66 100 NE5       29.94F FOG              
NASHUA         LGT RAIN  69  69 100 E3        29.94F                  
MANCHESTER     CLOUDY    69  68  96 VRB5      29.93S                  
CONCORD        CLOUDY    69  68  96 E3        29.94S                  
LACONIA        CLOUDY    68  68 100 NE7       29.96F                  
PLYMOUTH       HVY RAIN  67  66  95 CALM      29.95F                  
BERLIN         CLOUDY    68  66  93 CALM      29.99F                  
WHITEFIELD     CLOUDY    68  66  93 CALM      29.97F                  
JAFFREY        CLOUDY    68  68 100 CALM      29.95F                  
KEENE          CLOUDY   N/A N/A N/A CALM      29.92F                  
LEBANON        HVY RAIN  70  67  90 NW5       29.93F FOG              
MT WASHINGTON  LGT RAIN  54  54 100 SE18        N/A  VSB 0            
$$

VTZ005-007-008-140800-
VERMONT
  
CITY           SKY/WX    TMP DP  RH WIND       PRES   REMARKS
ST JOHNSBURY     N/A     68  68 100 MISG      29.94F                  
MONTPELIER     RAIN      67  67 100 CALM      29.99F FOG              
BURLINGTON     FAIR      73  66  78 E6        29.91F                  
$$

MAZ007-012-024-CTZ003-RIZ002-NYZ038-NYZ072-140800-
SOUTHERN NEW ENGLAND AND NY
  
CITY           SKY/WX    TMP DP  RH WIND       PRES   REMARKS
BOSTON         FOG       70  69  97 NE3       29.92F VSB 1/4          
WORCESTER      FOG       67  67 100 NE6       29.94F VSB 1/4          
NANTUCKET      FOG       71  71 100 CALM      29.92F VSB 1/4          
PROVIDENCE     FOG       73  73 100 CALM      29.91F VSB 1            
HARTFORD       CLOUDY    73  72  96 CALM      29.89S                  
ALBANY         DRIZZLE   71  67  87 NE5       29.88F                  
NEW YORK CITY  FAIR      73  71  93 CALM      29.87F                  
$$

ANZ081-ANZ082-ANZ150-NHZ014-MEZ023>029-140800-
COASTAL MARINE OBSERVATIONS
  
STATION/POSITION TIME  TEMP    WIND        PRES    WAVE
                       AIR SEA DIR/SP/G            HT/PER
                 (UTC) (F)     (DEG/KT/KT) (MB)    (FT/S)
MOUNT DESERT ROC 0700   59      20/  9/  9 1015.4F
MATINICUS ROCK   0600   65      80/  9/  9 1014.7F
ISLE OF SHOALS   0600   66      30/ 12/ 15 1013.5F
JEFFREYS LEDGE   0636      71                N/A     2/ 3
$$

.............KEY..............
   WCI - WIND CHILL
   TC  - TEMPERATURE IN CELSIUS
   VSB - VISIBILITY IN MILES
   HX  - HEAT INDEX
   FAIR- INDICATES FEW OR NO CLOUDS BELOW 12,000 FT, WITH NO 
         SIGNIFICANT WEATHER AND/OR OBSTRUCTIONS TO VISIBILITY.